FW2014 Weather Reports


time (UTC)temp
C
wind
direction
speed
KPH
gust
KPH
rain 1hr
cm
rain 24hr
cm
rain mn
cm
humidity
%
barometer
mb
20260505203120 1 202 0.0 1.6 0.00 0.00 0.00 68 1012.0
20260505201603 1 202 0.0 0.0 0.00 0.00 0.00 69 1012.1
20260505200058 2 201 0.0 0.0 0.00 0.00 0.00 70 1012.0
20260505194555 2 201 0.0 0.0 0.00 0.00 0.00 70 1011.9
20260505193053 3 201 0.0 0.0 0.00 0.00 0.00 70 1011.8
20260505191603 4 201 0.0 0.0 0.00 0.00 0.00 67 1011.8
20260505190051 6 201 0.0 0.0 0.00 0.00 0.00 61 1011.5
20260505184550 7 187 0.0 3.2 0.00 0.00 0.00 56 1011.4
20260505183049 8 173 0.0 9.7 0.00 0.00 0.00 53 1011.3
20260505181549 9 160 4.8 12.9 0.00 0.00 0.00 48 1011.3
20260505180050 9 187 3.2 12.9 0.00 0.00 0.00 46 1011.3
20260505174546 9 160 11.3 17.7 0.00 0.00 0.00 45 1011.1
20260505173043 10 200 9.7 17.7 0.00 0.00 0.00 43 1011.1
20260505171545 10 189 4.8 19.3 0.00 0.00 0.00 42 1011.0
20260505164542 11 212 9.7 17.7 0.00 0.00 0.00 38 1010.9
20260505163041 11 174 9.7 24.1 0.00 0.00 0.00 38 1010.9
20260505161538 11 215 14.5 22.5 0.00 0.00 0.00 37 1010.9
20260505153036 11 233 1.6 20.9 0.00 0.00 0.00 29 1010.8
20260505151545 11 195 12.9 24.1 0.00 0.00 0.00 31 1010.9
20260505124524 11 151 12.9 22.5 0.00 0.00 0.00 34 1010.9
20260505123022 10 177 11.3 27.4 0.00 0.00 0.00 34 1011.0
20260505121521 11 224 8.0 25.7 0.00 0.00 0.00 35 1011.0
20260505120020 11 217 6.4 24.1 0.00 0.00 0.00 35 1010.9
20260505114520 10 205 11.3 25.7 0.00 0.00 0.00 32 1010.9
20260505113020 10 168 14.5 27.4 0.00 0.00 0.00 35 1010.9
20260505111515 10 257 8.0 20.9 0.00 0.00 0.00 36 1010.8
20260505101513 10 254 4.8 24.1 0.00 0.00 0.00 39 1010.8
20260505100009 10 239 11.3 25.7 0.00 0.00 0.00 34 1010.7
20260505094507 10 241 11.3 25.7 0.00 0.00 0.00 33 1010.7
20260505093105 10 140 8.0 17.7 0.00 0.00 0.00 38 1010.6
20260505091503 10 174 6.4 19.3 0.00 0.00 0.00 38 1010.5
20260505090001 9 216 8.0 19.3 0.00 0.00 0.00 36 1010.4
20260505084600 9 309 9.7 25.7 0.00 0.00 0.00 38 1010.3
20260505083103 9 238 8.0 17.7 0.00 0.00 0.00 38 1010.2
20260505081602 9 45 1.6 14.5 0.00 0.00 0.00 42 1010.1
20260505080056 9 164 0.0 9.7 0.00 0.00 0.00 40 1010.1
20260505074555 8 205 4.8 12.9 0.00 0.00 0.00 43 1010.1
20260505073056 8 222 3.2 14.5 0.00 0.00 0.00 42 1010.1
20260505071553 7 214 3.2 20.9 0.00 0.00 0.00 46 1010.2
20260505070050 7 206 1.6 11.3 0.00 0.00 0.00 47 1010.1
20260505064549 7 217 1.6 12.9 0.00 0.00 0.00 47 1010.0
20260505063048 7 218 3.2 16.1 0.00 0.00 0.00 49 1010.0
20260505061549 7 308 3.2 12.9 0.00 0.00 0.00 51 1010.0
20260505060048 6 285 6.4 14.5 0.00 0.00 0.00 51 1010.1
20260505054546 6 238 1.6 11.3 0.00 0.00 0.00 55 1010.0
20260505053048 6 186 0.0 9.7 0.00 0.00 0.00 59 1009.8
20260505051543 5 163 3.2 6.4 0.00 0.00 0.00 62 1009.7
20260505041538 0 171 0.0 0.0 0.00 0.00 0.00 46 1009.3
20260505040035 0 171 0.0 0.0 0.00 0.00 0.00 52 1009.3
20260505034534 0 171 0.0 0.0 0.00 0.00 0.00 63 1009.1
20260505033039 1 171 0.0 0.0 0.00 0.00 0.00 69 1009.0
20260505031524 1 171 0.0 0.0 0.00 0.00 0.00 71 1008.9
20260505030026 2 171 0.0 0.0 0.00 0.00 0.00 72 1008.7
20260505024517 2 171 0.0 0.0 0.00 0.00 0.00 72 1008.6
20260505023016 3 269 0.0 4.8 0.00 0.00 0.00 71 1008.6
20260505021512 3 256 0.0 4.8 0.00 0.00 0.00 72 1008.6
20260505020008 5 288 0.0 1.6 0.00 0.00 0.00 71 1008.4
20260505014509 5 207 0.0 1.6 0.00 0.00 0.00 69 1008.4
20260505013002 6 217 0.0 6.4 0.00 0.00 0.00 68 1008.3
20260505011601 6 208 0.0 6.4 0.00 0.00 0.00 69 1008.2
20260505010101 7 229 1.6 8.0 0.00 0.00 0.00 70 1008.0
20260505004558 7 175 3.2 11.3 0.00 0.00 0.00 70 1008.0
20260505003050 7 165 3.2 9.7 0.00 0.00 0.00 69 1007.9
20260505001546 8 200 8.0 16.1 0.00 0.00 0.00 68 1007.7
20260505000046 8 236 9.7 19.3 0.00 0.00 0.00 63 1007.5
20260504234603 8 163 6.4 22.5 0.00 0.00 0.00 63 1007.5
20260504233039 8 155 9.7 24.1 0.00 0.00 0.00 64 1007.3
20260504231549 8 167 14.5 25.7 0.00 0.00 0.00 65 1007.3
20260504230034 8 208 12.9 22.5 0.00 0.00 0.00 63 1007.2
20260504224531 8 219 12.9 24.1 0.00 0.00 0.00 61 1007.1
20260504223027 8 194 8.0 17.7 0.00 0.00 0.00 61 1007.2
20260504221525 8 155 8.0 19.3 0.00 0.00 0.00 59 1007.0
20260504220022 9 141 6.4 19.3 0.00 0.00 0.00 60 1006.9
20260504214519 9 191 9.7 20.9 0.00 0.00 0.00 61 1007.0
20260504213012 9 180 9.7 24.1 0.00 0.00 0.00 64 1007.0
20260504211508 9 221 6.4 14.5 0.00 0.00 0.00 60 1006.9
20260504210003 8 203 6.4 16.1 0.00 0.00 0.00 57 1007.0
20260504204638 8 158 3.2 9.7 0.00 0.00 0.00 49 1007.0